Location: Newark
(42.5928°N, 8.7846°W)
Time: 01:16:21
(UTC+00:00)

Starlink Launch 2 leader - Visible Passes

Search period start: 08 December 2019 00:00
Search period end: 18 December 2019 00:00
Orbit: 279 x 281 km, 53.0° (Epoch: 13 November)

Date Brightness Start Highest point End Pass type
(mag) Time Alt. Az. Time Alt. Az. Time Alt. Az.
08 Dec 2.1 06:48:14 22° NW 06:49:37 89° S 06:52:04 10° SE visible
09 Dec 3.0 06:50:19 22° W 06:51:30 38° SW 06:53:49 10° SSE visible
10 Dec 4.1 06:52:28 16° WSW 06:53:19 18° SW 06:55:08 10° S visible
